When you browse on this site, cookies collect data to enhance your experience and personalize the content and advertising you see.
Visit our Privacy Policy to learn more. By continuing to use the site, you agree to this use of cookies and data.
  • In Hungary
  • List of Countries
  • For 7 days
  • Water Temperature
  • Weather Map
  • News
  • Weather Widgets
  • user-avatar
    Login

    Hourly Weather Telfs

    Today, 7 December, Saturday

    Time Temperature Precipitation Wind Pressure Humidity
    00:00 +2°C° 0 mm 2 mps 691 mmHg 49%
    01:00 +3°C° 0 mm 2 mps 691 mmHg 49%
    02:00 +4°C° 0.1 mm 2 mps 690 mmHg 52%
    03:00 +4°C° 0.1 mm 2 mps 690 mmHg 54%
    04:00 +5°C° 0.1 mm 1 mps 690 mmHg 57%
    05:00 +5°C° 0 mm 1 mps 690 mmHg 60%
    06:00 +5°C° 0 mm 1 mps 690 mmHg 64%
    07:00 +5°C° 0 mm 1 mps 691 mmHg 67%
    08:00 +5°C° 0.3 mm 1 mps 691 mmHg 72%
    09:00 +6°C° 0.3 mm 1 mps 691 mmHg 76%
    10:00 +6°C° 0.3 mm 1 mps 691 mmHg 81%
    11:00 +7°C° 0.2 mm 1 mps 691 mmHg 83%
    12:00 +7°C° 0.2 mm 1 mps 691 mmHg 85%
    13:00 +8°C° 0.2 mm 1 mps 691 mmHg 87%
    14:00 +7°C° 0.1 mm 1 mps 691 mmHg 91%
    15:00 +6°C° 0.1 mm 1 mps 691 mmHg 94%
    16:00 +6°C° 0.1 mm 1 mps 691 mmHg 97%
    17:00 +5°C° 0 mm 1 mps 692 mmHg 96%
    18:00 +5°C° 0 mm 1 mps 692 mmHg 96%
    19:00 +5°C° 0 mm 1 mps 692 mmHg 95%
    20:00 +4°C° 0 mm 1 mps 692 mmHg 92%
    21:00 +4°C° 0 mm 1 mps 692 mmHg 90%
    22:00 +3°C° 0 mm 1 mps 692 mmHg 87%
    23:00 +2°C° 0 mm 2 mps 692 mmHg 83%

    Tomorrow, 8 December, Sunday

    Time Temperature Precipitation Wind Pressure Humidity
    00:00 +2°C° 0 mm 2 mps 692 mmHg 80%
    01:00 +2°C° 0 mm 2 mps 692 mmHg 76%
    02:00 +2°C° 0 mm 2 mps 692 mmHg 72%
    03:00 +2°C° 0 mm 2 mps 691 mmHg 68%
    04:00 +2°C° 0 mm 2 mps 691 mmHg 64%
    05:00 +2°C° 0 mm 2 mps 691 mmHg 60%
    06:00 +2°C° 0 mm 2 mps 691 mmHg 56%
    07:00 +2°C° 0 mm 2 mps 691 mmHg 52%
    08:00 +4°C° 0 mm 1 mps 691 mmHg 52%
    09:00 +6°C° 0 mm 1 mps 691 mmHg 51%
    10:00 +7°C° 0 mm 1 mps 691 mmHg 51%
    11:00 +8°C° 0 mm 1 mps 690 mmHg 54%
    12:00 +9°C° 0 mm 1 mps 690 mmHg 58%
    13:00 +10°C° 0 mm 1 mps 689 mmHg 61%
    14:00 +9°C° 0 mm 1 mps 689 mmHg 61%
    15:00 +8°C° 0 mm 1 mps 688 mmHg 61%
    16:00 +6°C° 0 mm 2 mps 688 mmHg 62%
    17:00 +5°C° 0 mm 2 mps 688 mmHg 60%
    18:00 +5°C° 0 mm 2 mps 688 mmHg 58%
    19:00 +4°C° 0 mm 2 mps 688 mmHg 56%
    20:00 +4°C° 0 mm 2 mps 687 mmHg 57%
    21:00 +4°C° 0 mm 2 mps 687 mmHg 58%
    22:00 +4°C° 0 mm 2 mps 686 mmHg 58%
    23:00 +4°C° 0 mm 2 mps 686 mmHg 59%

    Day after tomorrow, 9 December, Monday

    Time Temperature Precipitation Wind Pressure Humidity
    00:00 +4°C° 0 mm 2 mps 686 mmHg 60%
    01:00 +4°C° 0 mm 2 mps 685 mmHg 61%
    02:00 +4°C° 0 mm 2 mps 685 mmHg 63%
    03:00 +5°C° 0 mm 1 mps 685 mmHg 65%
    04:00 +5°C° 0 mm 1 mps 684 mmHg 67%
    05:00 +4°C° 0.5 mm 1 mps 684 mmHg 74%
    06:00 +4°C° 0.5 mm 1 mps 684 mmHg 81%
    07:00 +3°C° 0.5 mm 1 mps 684 mmHg 88%
    08:00 +4°C° 0.2 mm 1 mps 684 mmHg 86%
    09:00 +4°C° 0.2 mm 1 mps 684 mmHg 85%
    10:00 +5°C° 0.2 mm 1 mps 684 mmHg 83%
    11:00 +5°C° 0 mm 2 mps 684 mmHg 76%
    12:00 +6°C° 0 mm 2 mps 683 mmHg 70%
    13:00 +6°C° 0 mm 2 mps 683 mmHg 63%
    14:00 +5°C° 0.1 mm 2 mps 683 mmHg 68%
    15:00 +4°C° 0.1 mm 2 mps 683 mmHg 74%
    16:00 +4°C° 0.1 mm 1 mps 683 mmHg 79%
    17:00 +4°C° 0.5 mm 1 mps 683 mmHg 84%
    18:00 +3°C° 0.5 mm 1 mps 684 mmHg 89%
    19:00 +3°C° 0.5 mm 1 mps 685 mmHg 93%
    20:00 +1°C° 0.8 mm 2 mps 685 mmHg 93%
    21:00 +1°C° 0.8 mm 2 mps 686 mmHg 93%
    22:00 -1°C° 0.8 mm 2 mps 687 mmHg 92%
    23:00 -2°C° 0.1 mm 2 mps 687 mmHg 91%

    10 December, Tuesday

    Time Temperature Precipitation Wind Pressure Humidity
    00:00 -2°C° 0.1 mm 2 mps 687 mmHg 89%
    01:00 -3°C° 0.1 mm 2 mps 688 mmHg 88%
    02:00 -3°C° 0.2 mm 2 mps 688 mmHg 89%
    03:00 -3°C° 0.2 mm 2 mps 689 mmHg 91%
    04:00 -2°C° 0.2 mm 2 mps 689 mmHg 93%
    05:00 -2°C° 0.8 mm 2 mps 690 mmHg 94%
    06:00 -2°C° 0.8 mm 2 mps 691 mmHg 94%
    07:00 -2°C° 0.8 mm 2 mps 692 mmHg 95%
    08:00 -1°C° 0.7 mm 2 mps 693 mmHg 94%
    09:00 -1°C° 0.7 mm 2 mps 693 mmHg 92%
    10:00 -1°C° 0.7 mm 2 mps 694 mmHg 91%
    11:00 -1°C° 0.1 mm 2 mps 694 mmHg 88%
    12:00 -1°C° 0.1 mm 2 mps 694 mmHg 85%
    13:00 +1°C° 0.1 mm 2 mps 695 mmHg 82%
    14:00 +1°C° 0 mm 1 mps 694 mmHg 85%
    15:00 0°C° 0 mm 1 mps 694 mmHg 88%
    16:00 -2°C° 0 mm 1 mps 694 mmHg 91%
    17:00 -2°C° 0 mm 1 mps 694 mmHg 84%
    18:00 -5°C° 0 mm 2 mps 694 mmHg 78%
    19:00 -6°C° 0 mm 2 mps 694 mmHg 71%
    20:00 -5°C° 0 mm 2 mps 694 mmHg 66%
    21:00 -5°C° 0 mm 2 mps 694 mmHg 60%
    22:00 -5°C° 0 mm 2 mps 694 mmHg 54%
    23:00 -5°C° 0 mm 2 mps 693 mmHg 51%

    11 December, Wednesday

    Time Temperature Precipitation Wind Pressure Humidity
    00:00 -4°C° 0 mm 2 mps 693 mmHg 47%
    01:00 -4°C° 0 mm 2 mps 693 mmHg 44%
    02:00 -3°C° 0 mm 2 mps 692 mmHg 42%
    03:00 -3°C° 0 mm 2 mps 692 mmHg 41%
    04:00 -2°C° 0 mm 2 mps 691 mmHg 39%
    05:00 -2°C° 0 mm 2 mps 691 mmHg 39%
    06:00 -2°C° 0 mm 2 mps 691 mmHg 38%
    07:00 -1°C° 0 mm 2 mps 690 mmHg 38%
    08:00 +2°C° 0 mm 1 mps 690 mmHg 41%
    09:00 +4°C° 0 mm 1 mps 690 mmHg 45%
    10:00 +5°C° 0 mm 1 mps 690 mmHg 48%
    11:00 +6°C° 0 mm 1 mps 690 mmHg 52%
    12:00 +6°C° 0 mm 0 mps 689 mmHg 57%
    13:00 +7°C° 0 mm 0 mps 689 mmHg 61%
    14:00 +5°C° 0 mm 0 mps 689 mmHg 61%
    15:00 +4°C° 0 mm 0 mps 688 mmHg 61%
    16:00 +3°C° 0 mm 0 mps 688 mmHg 61%
    17:00 +3°C° 0 mm 0 mps 688 mmHg 62%
    18:00 +2°C° 0 mm 0 mps 687 mmHg 63%
    19:00 +2°C° 0 mm 1 mps 687 mmHg 64%
    20:00 +2°C° 0.2 mm 1 mps 687 mmHg 68%
    21:00 +2°C° 0.2 mm 1 mps 688 mmHg 73%
    22:00 +2°C° 0.2 mm 1 mps 688 mmHg 77%
    23:00 +2°C° 0.4 mm 1 mps 688 mmHg 82%

    12 December, Thursday

    Time Temperature Precipitation Wind Pressure Humidity
    00:00 +1°C° 0.4 mm 1 mps 687 mmHg 87%
    01:00 +1°C° 0.4 mm 1 mps 687 mmHg 93%
    02:00 +1°C° 0.4 mm 1 mps 687 mmHg 93%
    03:00 +1°C° 0.4 mm 1 mps 687 mmHg 93%
    04:00 +1°C° 0.4 mm 1 mps 687 mmHg 93%
    05:00 0°C° 0.1 mm 1 mps 687 mmHg 92%
    06:00 0°C° 0.1 mm 1 mps 687 mmHg 92%
    07:00 0°C° 0.1 mm 1 mps 687 mmHg 91%
    08:00 0°C° 0 mm 1 mps 687 mmHg 90%
    09:00 +1°C° 0 mm 1 mps 688 mmHg 88%
    10:00 +1°C° 0 mm 1 mps 688 mmHg 87%
    11:00 +2°C° 0 mm 1 mps 688 mmHg 83%
    12:00 +2°C° 0 mm 1 mps 687 mmHg 79%
    13:00 +3°C° 0 mm 1 mps 687 mmHg 76%
    14:00 +2°C° 0 mm 1 mps 686 mmHg 80%
    15:00 -1°C° 0 mm 0 mps 686 mmHg 84%
    16:00 -2°C° 0 mm 0 mps 685 mmHg 88%
    17:00 -2°C° 0 mm 1 mps 685 mmHg 84%
    18:00 -4°C° 0 mm 2 mps 685 mmHg 79%
    19:00 -5°C° 0 mm 2 mps 684 mmHg 75%
    20:00 -6°C° 0 mm 3 mps 684 mmHg 73%
    21:00 -6°C° 0 mm 3 mps 683 mmHg 70%
    22:00 -6°C° 0 mm 3 mps 682 mmHg 68%
    23:00 -7°C° 0 mm 4 mps 682 mmHg 69%
    Show more